Вернуться в каталог

STARLINK-37304

АктивенСвязьSSO
NORAD 68683·PAYLOAD·🇺🇸 United States

Запущен Apr 11, 2026 с Vandenberg Space Force Base

Loading…

Ближайшие Пролёты (ближайшие 24 часа)

TLE

СвежийSource: CelesTrak SupGP

Эпоха: Sep 14, 2026, 22:45 UTC

1 68683C 26077X   26257.94840278  .00061637  00000+0  19140-2 0  2573
2 68683  97.2849 127.9913 0001594  95.1636  16.7198 15.33395974    15

Отслеживайте STARLINK-37304 в реальном времени с AllMySat

Download on the App Store